Location: Dead Woman Crossing
(43.5369°N, 106.3228°W)
Time: 07:09:35
(UTC+00:00)

NANOSAT C BR1 - Pass Details

Date: 30 June 2022
Orbit: 584 x 599 km, 98.0° (Epoch: 09 August)

Event Time Altitude Azimuth Distance (km) Brightness Sun altitude
Rises 10:41:29 0° 352° (N) 2,847 ? -7.4°
Reaches altitude 10° 10:44:49 10° 324° (NW) 1,943 ? -7.0°
Maximum altitude 10:46:35 12° 299° (WNW) 1,783 ? -6.7°
Drops below altitude 10° 10:48:21 10° 274° (W) 1,940 ? -6.5°
Enters shadow 10:50:07 - 256° (WSW) 2,354 ? -6.2°
